Location: Unspecified
(0.0000°N, 0.0000°E)
Time: 16:40:02
(UTC+00:00)

Vanguard 2 - Visible Passes

Search period start: 18 June 2019 00:00
Search period end: 28 June 2019 00:00
Orbit: 553 x 2939 km, 32.9° (Epoch: 18 June)

Date Brightness Start Highest point End Pass type
(mag) Time Alt. Az. Time Alt. Az. Time Alt. Az.
18 Jun 8.0 04:32:03 28° S 04:33:06 32° SE 04:36:48 10° E visible
18 Jun 10.8 19:48:02 10° W 20:02:01 30° SW 20:09:45 19° S visible
19 Jun 6.9 04:49:12 30° SW 04:51:03 70° SE 04:55:11 10° ENE visible
19 Jun 11.0 20:08:44 10° WSW 20:20:38 23° SSW 20:26:47 17° S visible
20 Jun 7.2 05:06:22 19° WSW 05:09:00 53° NW 05:13:06 10° NE visible
20 Jun 11.0 18:08:58 10° WNW 18:25:41 47° SW 18:40:14 10° SE visible
20 Jun 11.1 20:30:11 10° WSW 20:39:32 17° SSW 20:43:47 15° S visible
21 Jun 10.0 03:22:04 10° E 03:22:04 10° E 03:22:09 10° E visible
21 Jun 8.3 05:23:39 10° W 05:27:00 25° NNW 05:30:33 10° NNE visible
21 Jun 11.1 18:28:30 10° W 18:44:11 37° SSW 18:57:48 10° SSE visible
21 Jun 11.3 20:52:25 10° SW 20:58:43 13° SSW 21:00:46 13° SSW visible
22 Jun 9.2 03:39:12 22° E 03:39:12 22° E 03:40:42 10° ENE visible
22 Jun 11.2 18:48:35 10° W 19:02:52 29° SSW 19:15:17 10° SSE visible
22 Jun 11.4 21:15:50 10° SSW 21:17:44 10° SSW 21:17:44 10° SSW visible
23 Jun 8.2 03:56:18 38° NE 03:56:18 38° NE 03:58:47 10° NE visible
23 Jun 11.2 19:09:16 10° WSW 19:21:50 23° SSW 19:32:45 10° SSE visible
24 Jun 8.0 04:13:24 34° NNW 04:13:24 34° NNW 04:16:25 10° NNE visible
24 Jun 11.2 19:30:35 10° WSW 19:41:04 18° SSW 19:50:10 10° SSE visible
25 Jun 8.7 04:30:28 19° NW 04:30:38 19° NW 04:33:31 10° N visible
25 Jun 11.3 19:52:19 10° SW 20:00:35 15° SSW 20:07:05 11° S visible
26 Jun 11.3 20:14:03 10° SW 20:20:19 13° SSW 20:23:59 12° S visible
27 Jun 11.4 18:10:29 10° WSW 18:22:51 22° SSW 18:34:38 10° SSE visible
27 Jun 11.3 20:34:58 10° SSW 20:40:09 12° S 20:40:53 12° S visible
